Regional Weather Roundup
Issued by NWS

Home | Current Version | Previous Version | Text Only | Print | Product List | Glossary Off
Versions: 1 2 3 4 5 6 7 8 9 10 11 12 13 14 15 16 17 18 19 20 21 22 23 24 25 26 27 28 29 30 31 32 33 34 35 36 37 38 39 40 41 42 43 44 45 46 47 48 49 50

000
ASUS45 KBOU 030207
RWRCO

WEATHER ROUNDUP FOR COLORADO
NATIONAL WEATHER SERVICE DENVER/BOULDER CO
800 PM MDT WED SEP 02 2015

NOTE: "FAIR" INDICATES FEW OR NO CLOUDS BELOW 12000 FEET WITH NO
SIGNIFICANT WEATHER AND/OR OBSTRUCTIONS TO VISIBILITY.

COZ001>005-013-030-031-030300-
...NORTHWEST COLORADO...

CITY           SKY/WX    TMP DP  RH WIND       PRES   REMARKS
CRAIG          PTCLDY    65  54  67 SW3       30.11R
HAYDEN         NOT AVBL
MEEKER         PTCLDY    68  46  45 W7        30.12R
MOUNT WERNER   NOT AVBL
STEAMBOAT SPGS PTCLDY    67  43  42 CALM      30.16S
WALDEN         PTCLDY    61  37  41 SW7       30.26R
$$

COZ006>008-011-030300-
...WEST CENTRAL VALLEYS...

CITY           SKY/WX    TMP DP  RH WIND       PRES   REMARKS
GRAND JUNCTION PTCLDY    80  50  34 SW3       30.00S
MONTROSE       MOCLDY    74  49  41 SE15      30.11S
EAGLE          PTCLDY    73  43  33 S9        30.17R
RIFLE          MOCLDY    73  57  57 SE7       30.07R
DELTA          MOCLDY    80  49  34 E6        30.06R
NUCLA          MOCLDY    79  36  21 SW8       30.13S
$$

COZ017>023-064>068-030300-
...SOUTHWEST COLORADO...

CITY           SKY/WX    TMP DP  RH WIND       PRES   REMARKS
DURANGO        MOCLDY    72  45  37 SW6       30.20R
CORTEZ         CLEAR     70  50  49 S7        30.13R
PAGOSA SPRINGS MOCLDY    68  42  39 CALM      30.29R
TELLURIDE      MOCLDY    60  47  63 CALM      30.39F
WOLF CREEK PAS NOT AVBL
$$

COZ009-010-012-014-032>034-037-058>063-030300-
...CENTRAL COLORADO...

CITY           SKY/WX    TMP DP  RH WIND       PRES   REMARKS
ASPEN          CLOUDY    66  49  54 S7        30.25R
BUENA VISTA    CLOUDY    67  34  29 W12G28    30.28R
COPPER MTN     MOCLDY    54  34  47 S10G16    30.59R
BERTHOUD PASS  FAIR      45  34  65 NW7       30.63S
COTTONWOOD PAS CLOUDY    61  34  36 SW26G33   30.41F
GUNNISON       CLOUDY    61  48  63 SE7       30.33R
KREMMLING      PTCLDY    70  36  28 CALM      30.22R
LEADVILLE      CLOUDY    49  47  93 N10       30.42R
MONARCH PASS   CLOUDY    46  34  61 N8        30.69F
SALIDA         CLOUDY    68  40  36 SW13G18   30.32S
SUNLIGHT       MOCLDY    50  48  93 CALM      30.50F
WILKERSON PASS MOCLDY    54  32  43 SW8G17    30.54S
$$

COZ069>075-030300-
...SAN LUIS VALLEY/SANGRE DE CRISTO MOUNTAINS...

CITY           SKY/WX    TMP DP  RH WIND       PRES   REMARKS
ALAMOSA        CLOUDY    63  46  54 NW10      30.27R
LA VETA PASS   CLOUDY    46  43  87 MISG      30.46S
SAGUACHE       MOCLDY    59  45  58 N9        30.30S
$$

COZ035-036-038>040-030300-
...NORTHERN COLORADO FRONT RANGE...

CITY           SKY/WX    TMP DP  RH WIND       PRES   REMARKS
DENVER INTL AP MOCLDY    73  39  29 SE8       30.01S
DMNS CITY PARK   N/A     80  42  26 S6        30.01S
AURORA         MOCLDY    76  39  26 SE8       30.05R
FRONT RANGE AP MOCLDY    75  39  27 SE8       30.04R
ERIE MUNI ARPT MOCLDY    76  42  29 S7        30.00R
BOULDER MUN AP MOCLDY    79  43  27 CALM      30.00S
CENTENNIAL     MOCLDY    78  41  26 SW5       30.06R
BROOMFIELD     MOCLDY    77  41  27 SW7       30.04S
FORT COLLINS   PTCLDY    79  41  25 N5        29.98R
LONGMONT       PTCLDY    76  52  42 W5        30.00S
$$

COZ041-046-047-076>085-087-088-030300-
...PIKES PEAK/PALMER DIVIDE AND SOUTHERN FOOTHILLS...

CITY           SKY/WX    TMP DP  RH WIND       PRES   REMARKS
COLO. SPRINGS  CLOUDY    77  41  27 S6        30.12R
A. F. ACADEMY  CLOUDY    75  41  30 E2        30.13R HAZE
ELLICOTT         N/A    N/A N/A N/A SE8       30.10R
FALCON         CLOUDY    71  44  38 MISG      30.18R
FORT CARSON    CLOUDY    77  44  30 SW2       30.08R
LIMON          MOCLDY    69  48  47 CALM      30.04R
MONUMENT HILL  CLOUDY    66  46  48 S6        30.18R
TRINIDAD       CLOUDY    79  44  28 SW12      30.09R
$$

COZ042>045-048>051-090-091-030300-
...NORTHEAST COLORADO...

CITY           SKY/WX    TMP DP  RH WIND       PRES   REMARKS
GREELEY ARPT   PTCLDY    75  50  41 CALM      29.97R
AKRON          PTCLDY    79  40  24 S5        29.97R
BURLINGTON     PTCLDY    74  51  44 CALM      29.94R
WRAY           CLOUDY    85  46  25 CALM      29.89R
STERLING       PTCLDY    81  45  28 CALM      29.90R
HOLYOKE        PTCLDY    77  64  65 CALM      29.90R
FORT MORGAN    PTCLDY    77  39  25 SE5       29.95S
$$

COZ086-089-092>099-030300-
...SOUTHEAST COLORADO...

CITY           SKY/WX    TMP DP  RH WIND       PRES   REMARKS
PUEBLO         CLOUDY    82  43  25 E6        29.97R
LA JUNTA       MOCLDY    85  44  23 S8        29.93R
LAMAR          MOCLDY    84  53  34 S12       29.87S
SPRINGFIELD      N/A     80  52  37 S12       29.96R
$$



USA.gov is the U.S. government's official web portal to all federal, state and local government web resources and services.